Weather History for West Plains, MO

Change the Weather History Date:

Friday, January 25, 2013

  Actual Average Record
Temperature  
Mean Temperature 38 °F 34 °F  
Max Temperature 49 °F 45 °F 77 °F (1950)
Min Temperature 27 °F 24 °F -2 °F (1963)
Degree Days  
Heating Degree Days 27 31  
Month to date heating degree days 764 775  
Since 1 July heating degree days 2432 2520  
Cooling Degree Days 0 0  
Month to date cooling degree days 0 0  
Year to date cooling degree days 0 0  
Moisture  
Dew Point 22 °F    
Average Humidity 59    
Maximum Humidity 75    
Minimum Humidity 42    
Precipitation  
Precipitation 0.00 in 0.11 in 1.70 in (2012)
Month to date precipitation 1.92 1.94  
Year to date precipitation 1.92 1.94  
Sea Level Pressure  
Sea Level Pressure 30.17 in    
Wind  
Wind Speed 5 mph (WNW)    
Max Wind Speed 13 mph    
Max Gust Speed 17 mph    
Visibility 10 miles    
Events      
T = Trace of Precipitation, MM = Missing Value Source: NWS Daily Summary

Daily Weather History Graph

Daily Weather History Graph

Search for Another Location

Airport:

Trip Planner

Search our weather history database for the weather conditions in past years. The results will help you decide how hot, cold, wet, or windy it might be!

Date:

Astronomy

Jan. 25, 2013 Rise Set
Actual Time 7:14 AM CST 5:25 PM CST
Civil Twilight 6:47 AM CST 5:53 PM CST
Nautical Twilight 6:15 AM CST 6:24 PM CST
Astronomical Twilight 5:45 AM CST 6:55 PM CST
Moon 4:23 PM CST (1/25) 5:54 AM CST (1/25)
Length of Visible Light 11h 06m
Length of Day
10h 10m
Waxing Gibbous, 98% of the Moon is Illuminated
Jan 25
Waxing Gibbous
Jan 26
Full
Feb 3
Last Quarter
Feb 10
New
Feb 17
First Quarter

Hourly Weather History & Observations

Time (CST) Temp. Windchill Dew Point Humidity Pressure Visibility Wind Dir Wind Speed Gust Speed Precip Events Conditions
12:53 AM 28.0 °F 24.2 °F 16.0 °F 61% 30.19 in 10.0 mi SE 3.5 mph - N/A   Overcast
1:04 AM 28.4 °F - 17.6 °F 64% 30.16 in 10.0 mi Calm Calm - N/A   Overcast
1:26 AM 28.4 °F - 17.6 °F 64% 30.16 in 10.0 mi Calm Calm - N/A   Overcast
1:53 AM 28.0 °F 24.2 °F 16.0 °F 61% 30.20 in 10.0 mi West 3.5 mph - N/A   Overcast
2:53 AM 28.0 °F 22.8 °F 17.1 °F 63% 30.16 in 10.0 mi South 4.6 mph - N/A   Overcast
3:53 AM 28.0 °F - 17.1 °F 63% 30.14 in 10.0 mi Calm Calm - N/A   Overcast
4:08 AM 28.4 °F - 17.6 °F 64% 30.12 in 10.0 mi Calm Calm - N/A   Overcast
4:53 AM 28.0 °F 22.8 °F 19.0 °F 69% 30.14 in 10.0 mi SSW 4.6 mph - N/A   Overcast
5:43 AM 28.4 °F 22.2 °F 19.4 °F 69% 30.10 in 10.0 mi WSW 5.8 mph - N/A   Overcast
5:53 AM 28.0 °F 24.2 °F 19.9 °F 72% 30.13 in 10.0 mi West 3.5 mph - N/A   Overcast
6:53 AM 28.0 °F 21.7 °F 21.0 °F 75% 30.16 in 10.0 mi WNW 5.8 mph - N/A   Overcast
7:20 AM 28.4 °F 23.3 °F 21.2 °F 74% 30.12 in 10.0 mi WNW 4.6 mph - N/A   Overcast
7:29 AM 28.4 °F 23.3 °F 21.2 °F 74% 30.11 in 9.0 mi West 4.6 mph - N/A   Overcast
7:53 AM 28.0 °F 21.7 °F 21.0 °F 75% 30.16 in 8.0 mi West 5.8 mph - N/A   Scattered Clouds
8:08 AM 28.4 °F 23.3 °F 21.2 °F 74% 30.13 in 8.0 mi WNW 4.6 mph - N/A   Scattered Clouds
8:23 AM 28.4 °F 21.2 °F 21.2 °F 74% 30.14 in 8.0 mi West 6.9 mph - N/A   Mostly Cloudy
8:39 AM 30.2 °F 22.6 °F 21.2 °F 69% 30.15 in 8.0 mi WNW 8.1 mph - N/A   Overcast
8:53 AM 30.0 °F 21.7 °F 23.0 °F 75% 30.19 in 8.0 mi WNW 9.2 mph - N/A   Overcast
9:53 AM 33.1 °F 26.1 °F 25.0 °F 72% 30.20 in 8.0 mi NW 8.1 mph - N/A   Overcast
10:53 AM 37.0 °F 31.0 °F 27.0 °F 67% 30.20 in 8.0 mi NW 8.1 mph - N/A   Overcast
11:53 AM 42.1 °F 37.1 °F 28.9 °F 60% 30.18 in 10.0 mi North 8.1 mph - N/A   Scattered Clouds
12:53 PM 44.1 °F 39.5 °F 28.9 °F 55% 30.17 in 10.0 mi WNW 8.1 mph - N/A   Clear
1:53 PM 46.9 °F - 28.0 °F 48% 30.17 in 10.0 mi WNW 8.1 mph - N/A   Clear
2:53 PM 48.9 °F - 27.0 °F 43% 30.17 in 10.0 mi North 8.1 mph - N/A   Clear
3:53 PM 48.0 °F - 26.1 °F 42% 30.17 in 10.0 mi NW 6.9 mph - N/A   Clear
4:53 PM 45.0 °F 43.5 °F 25.0 °F 46% 30.18 in 10.0 mi WNW 3.5 mph - N/A   Clear
5:53 PM 39.9 °F 37.8 °F 25.0 °F 55% 30.20 in 10.0 mi NW 3.5 mph - N/A   Clear
6:53 PM 37.9 °F - 25.0 °F 60% 30.21 in 10.0 mi Calm Calm - N/A   Clear
7:53 PM 39.0 °F 36.8 °F 24.1 °F 55% 30.22 in 10.0 mi West 3.5 mph - N/A   Clear
8:53 PM 37.9 °F 34.4 °F 24.1 °F 57% 30.24 in 10.0 mi NW 4.6 mph - N/A   Clear
9:53 PM 36.0 °F 32.1 °F 23.0 °F 59% 30.25 in 10.0 mi NNW 4.6 mph - N/A   Clear
10:53 PM 36.0 °F - 21.9 °F 57% 30.25 in 10.0 mi Calm Calm - N/A   Clear
11:53 PM 35.1 °F - 21.0 °F 57% 30.26 in 10.0 mi Calm Calm - N/A   Clear